Index of /20260506/WXO-DD/model_caps/3km/00/000
Name Last modified Size Description
Parent Directory -
20260506T00Z_MSC_CAPS_AbsoluteVorticity_IsbL-0250_RLatLon0.03_PT000H.grib2 2026-05-06 06:02 1.1M
20260506T00Z_MSC_CAPS_AbsoluteVorticity_IsbL-0500_RLatLon0.03_PT000H.grib2 2026-05-06 06:02 959K
20260506T00Z_MSC_CAPS_AbsoluteVorticity_IsbL-0700_RLatLon0.03_PT000H.grib2 2026-05-06 06:02 1.0M
20260506T00Z_MSC_CAPS_AbsoluteVorticity_IsbL-0850_RLatLon0.03_PT000H.grib2 2026-05-06 06:02 1.3M
20260506T00Z_MSC_CAPS_AbsoluteVorticity_IsbL-1000_RLatLon0.03_PT000H.grib2 2026-05-06 06:02 1.3M
20260506T00Z_MSC_CAPS_AirDensity_AGL-120m_RLatLon0.03_PT000H.grib2 2026-05-06 06:02 1.1M
20260506T00Z_MSC_CAPS_AirDensity_AGL-40m_RLatLon0.03_PT000H.grib2 2026-05-06 06:02 1.1M
20260506T00Z_MSC_CAPS_AirDensity_AGL-80m_RLatLon0.03_PT000H.grib2 2026-05-06 06:02 1.1M
20260506T00Z_MSC_CAPS_AirTemp_AGL-120m_RLatLon0.03_PT000H.grib2 2026-05-06 06:02 1.0M
20260506T00Z_MSC_CAPS_AirTemp_AGL-2m_RLatLon0.03_PT000H.grib2 2026-05-06 06:02 1.0M
20260506T00Z_MSC_CAPS_AirTemp_AGL-40m_RLatLon0.03_PT000H.grib2 2026-05-06 06:02 1.1M
20260506T00Z_MSC_CAPS_AirTemp_AGL-80m_RLatLon0.03_PT000H.grib2 2026-05-06 06:02 1.0M
20260506T00Z_MSC_CAPS_AirTemp_IsbL-0050_RLatLon0.03_PT000H.grib2 2026-05-06 06:02 679K
20260506T00Z_MSC_CAPS_AirTemp_IsbL-0100_RLatLon0.03_PT000H.grib2 2026-05-06 06:02 903K
20260506T00Z_MSC_CAPS_AirTemp_IsbL-0150_RLatLon0.03_PT000H.grib2 2026-05-06 06:02 704K
20260506T00Z_MSC_CAPS_AirTemp_IsbL-0175_RLatLon0.03_PT000H.grib2 2026-05-06 06:02 724K
20260506T00Z_MSC_CAPS_AirTemp_IsbL-0200_RLatLon0.03_PT000H.grib2 2026-05-06 06:02 740K
20260506T00Z_MSC_CAPS_AirTemp_IsbL-0225_RLatLon0.03_PT000H.grib2 2026-05-06 06:02 745K
20260506T00Z_MSC_CAPS_AirTemp_IsbL-0250_RLatLon0.03_PT000H.grib2 2026-05-06 06:02 963K
20260506T00Z_MSC_CAPS_AirTemp_IsbL-0275_RLatLon0.03_PT000H.grib2 2026-05-06 06:02 966K
20260506T00Z_MSC_CAPS_AirTemp_IsbL-0300_RLatLon0.03_PT000H.grib2 2026-05-06 06:02 966K
20260506T00Z_MSC_CAPS_AirTemp_IsbL-0350_RLatLon0.03_PT000H.grib2 2026-05-06 06:02 728K
20260506T00Z_MSC_CAPS_AirTemp_IsbL-0400_RLatLon0.03_PT000H.grib2 2026-05-06 06:02 732K
20260506T00Z_MSC_CAPS_AirTemp_IsbL-0450_RLatLon0.03_PT000H.grib2 2026-05-06 06:02 737K
20260506T00Z_MSC_CAPS_AirTemp_IsbL-0500_RLatLon0.03_PT000H.grib2 2026-05-06 06:02 742K
20260506T00Z_MSC_CAPS_AirTemp_IsbL-0550_RLatLon0.03_PT000H.grib2 2026-05-06 06:02 748K
20260506T00Z_MSC_CAPS_AirTemp_IsbL-0600_RLatLon0.03_PT000H.grib2 2026-05-06 06:02 757K
20260506T00Z_MSC_CAPS_AirTemp_IsbL-0650_RLatLon0.03_PT000H.grib2 2026-05-06 06:02 772K
20260506T00Z_MSC_CAPS_AirTemp_IsbL-0700_RLatLon0.03_PT000H.grib2 2026-05-06 06:02 953K
20260506T00Z_MSC_CAPS_AirTemp_IsbL-0750_RLatLon0.03_PT000H.grib2 2026-05-06 06:02 1.0M
20260506T00Z_MSC_CAPS_AirTemp_IsbL-0800_RLatLon0.03_PT000H.grib2 2026-05-06 06:02 915K
20260506T00Z_MSC_CAPS_AirTemp_IsbL-0850_RLatLon0.03_PT000H.grib2 2026-05-06 06:02 953K
20260506T00Z_MSC_CAPS_AirTemp_IsbL-0875_RLatLon0.03_PT000H.grib2 2026-05-06 06:02 972K
20260506T00Z_MSC_CAPS_AirTemp_IsbL-0900_RLatLon0.03_PT000H.grib2 2026-05-06 06:02 1.0M
20260506T00Z_MSC_CAPS_AirTemp_IsbL-0925_RLatLon0.03_PT000H.grib2 2026-05-06 06:02 1.0M
20260506T00Z_MSC_CAPS_AirTemp_IsbL-0950_RLatLon0.03_PT000H.grib2 2026-05-06 06:02 1.0M
20260506T00Z_MSC_CAPS_AirTemp_IsbL-0970_RLatLon0.03_PT000H.grib2 2026-05-06 06:02 1.0M
20260506T00Z_MSC_CAPS_AirTemp_IsbL-0985_RLatLon0.03_PT000H.grib2 2026-05-06 06:02 1.0M
20260506T00Z_MSC_CAPS_AirTemp_IsbL-1000_RLatLon0.03_PT000H.grib2 2026-05-06 06:02 963K
20260506T00Z_MSC_CAPS_AirTemp_IsbL-1015_RLatLon0.03_PT000H.grib2 2026-05-06 06:02 1.0M
20260506T00Z_MSC_CAPS_Albedo_Sfc_RLatLon0.03_PT000H.grib2 2026-05-06 06:02 2.7M
20260506T00Z_MSC_CAPS_CAPE_Sfc_RLatLon0.03_PT000H.grib2 2026-05-06 06:02 247K
20260506T00Z_MSC_CAPS_CloudWater_EAtm_RLatLon0.03_PT000H.grib2 2026-05-06 06:02 1.1M
20260506T00Z_MSC_CAPS_DewPointDepression_AGL-120m_RLatLon0.03_PT000H.grib2 2026-05-06 06:02 1.4M
20260506T00Z_MSC_CAPS_DewPointDepression_AGL-2m_RLatLon0.03_PT000H.grib2 2026-05-06 06:02 1.2M
20260506T00Z_MSC_CAPS_DewPointDepression_AGL-40m_RLatLon0.03_PT000H.grib2 2026-05-06 06:02 1.4M
20260506T00Z_MSC_CAPS_DewPointDepression_AGL-80m_RLatLon0.03_PT000H.grib2 2026-05-06 06:02 1.4M
20260506T00Z_MSC_CAPS_DewPointDepression_IsbL-0050_RLatLon0.03_PT000H.grib2 2026-05-06 06:02 1.2K
20260506T00Z_MSC_CAPS_DewPointDepression_IsbL-0100_RLatLon0.03_PT000H.grib2 2026-05-06 06:02 47K
20260506T00Z_MSC_CAPS_DewPointDepression_IsbL-0150_RLatLon0.03_PT000H.grib2 2026-05-06 06:02 60K
20260506T00Z_MSC_CAPS_DewPointDepression_IsbL-0175_RLatLon0.03_PT000H.grib2 2026-05-06 06:02 175K
20260506T00Z_MSC_CAPS_DewPointDepression_IsbL-0200_RLatLon0.03_PT000H.grib2 2026-05-06 06:02 335K
20260506T00Z_MSC_CAPS_DewPointDepression_IsbL-0225_RLatLon0.03_PT000H.grib2 2026-05-06 06:02 517K
20260506T00Z_MSC_CAPS_DewPointDepression_IsbL-0250_RLatLon0.03_PT000H.grib2 2026-05-06 06:02 736K
20260506T00Z_MSC_CAPS_DewPointDepression_IsbL-0275_RLatLon0.03_PT000H.grib2 2026-05-06 06:02 848K
20260506T00Z_MSC_CAPS_DewPointDepression_IsbL-0300_RLatLon0.03_PT000H.grib2 2026-05-06 06:02 897K
20260506T00Z_MSC_CAPS_DewPointDepression_IsbL-0350_RLatLon0.03_PT000H.grib2 2026-05-06 06:02 929K
20260506T00Z_MSC_CAPS_DewPointDepression_IsbL-0400_RLatLon0.03_PT000H.grib2 2026-05-06 06:02 968K
20260506T00Z_MSC_CAPS_DewPointDepression_IsbL-0450_RLatLon0.03_PT000H.grib2 2026-05-06 06:02 1.0M
20260506T00Z_MSC_CAPS_DewPointDepression_IsbL-0500_RLatLon0.03_PT000H.grib2 2026-05-06 06:02 1.0M
20260506T00Z_MSC_CAPS_DewPointDepression_IsbL-0550_RLatLon0.03_PT000H.grib2 2026-05-06 06:02 1.0M
20260506T00Z_MSC_CAPS_DewPointDepression_IsbL-0600_RLatLon0.03_PT000H.grib2 2026-05-06 06:02 1.0M
20260506T00Z_MSC_CAPS_DewPointDepression_IsbL-0650_RLatLon0.03_PT000H.grib2 2026-05-06 06:02 1.0M
20260506T00Z_MSC_CAPS_DewPointDepression_IsbL-0700_RLatLon0.03_PT000H.grib2 2026-05-06 06:02 1.0M
20260506T00Z_MSC_CAPS_DewPointDepression_IsbL-0750_RLatLon0.03_PT000H.grib2 2026-05-06 06:02 1.0M
20260506T00Z_MSC_CAPS_DewPointDepression_IsbL-0800_RLatLon0.03_PT000H.grib2 2026-05-06 06:02 1.1M
20260506T00Z_MSC_CAPS_DewPointDepression_IsbL-0850_RLatLon0.03_PT000H.grib2 2026-05-06 06:02 1.1M
20260506T00Z_MSC_CAPS_DewPointDepression_IsbL-0875_RLatLon0.03_PT000H.grib2 2026-05-06 06:02 1.1M
20260506T00Z_MSC_CAPS_DewPointDepression_IsbL-0900_RLatLon0.03_PT000H.grib2 2026-05-06 06:02 1.1M
20260506T00Z_MSC_CAPS_DewPointDepression_IsbL-0925_RLatLon0.03_PT000H.grib2 2026-05-06 06:02 1.1M
20260506T00Z_MSC_CAPS_DewPointDepression_IsbL-0950_RLatLon0.03_PT000H.grib2 2026-05-06 06:02 1.1M
20260506T00Z_MSC_CAPS_DewPointDepression_IsbL-0970_RLatLon0.03_PT000H.grib2 2026-05-06 06:02 1.1M
20260506T00Z_MSC_CAPS_DewPointDepression_IsbL-0985_RLatLon0.03_PT000H.grib2 2026-05-06 06:02 1.1M
20260506T00Z_MSC_CAPS_DewPointDepression_IsbL-1000_RLatLon0.03_PT000H.grib2 2026-05-06 06:02 1.1M
20260506T00Z_MSC_CAPS_DewPointDepression_IsbL-1015_RLatLon0.03_PT000H.grib2 2026-05-06 06:02 1.1M
20260506T00Z_MSC_CAPS_DewPoint_AGL-120m_RLatLon0.03_PT000H.grib2 2026-05-06 06:02 3.0M
20260506T00Z_MSC_CAPS_DewPoint_AGL-2m_RLatLon0.03_PT000H.grib2 2026-05-06 06:02 1.2M
20260506T00Z_MSC_CAPS_DewPoint_AGL-40m_RLatLon0.03_PT000H.grib2 2026-05-06 06:02 3.2M
20260506T00Z_MSC_CAPS_DewPoint_AGL-80m_RLatLon0.03_PT000H.grib2 2026-05-06 06:02 3.0M
20260506T00Z_MSC_CAPS_DownwardLongwaveRadiationFlux-Accum_Sfc_RLatLon0.03_PT000H.grib2 2026-05-06 06:02 217
20260506T00Z_MSC_CAPS_DownwardShortwaveRadiationFlux-Accum_NTAtm_RLatLon0.03_PT000H.grib2 2026-05-06 06:02 217
20260506T00Z_MSC_CAPS_DownwardShortwaveRadiationFlux-Accum_Sfc_RLatLon0.03_PT000H.grib2 2026-05-06 06:02 217
20260506T00Z_MSC_CAPS_GeopotentialHeight_IsbL-0050_RLatLon0.03_PT000H.grib2 2026-05-06 06:02 700K
20260506T00Z_MSC_CAPS_GeopotentialHeight_IsbL-0100_RLatLon0.03_PT000H.grib2 2026-05-06 06:02 865K
20260506T00Z_MSC_CAPS_GeopotentialHeight_IsbL-0150_RLatLon0.03_PT000H.grib2 2026-05-06 06:02 626K
20260506T00Z_MSC_CAPS_GeopotentialHeight_IsbL-0175_RLatLon0.03_PT000H.grib2 2026-05-06 06:02 734K
20260506T00Z_MSC_CAPS_GeopotentialHeight_IsbL-0200_RLatLon0.03_PT000H.grib2 2026-05-06 06:02 750K
20260506T00Z_MSC_CAPS_GeopotentialHeight_IsbL-0225_RLatLon0.03_PT000H.grib2 2026-05-06 06:02 767K
20260506T00Z_MSC_CAPS_GeopotentialHeight_IsbL-0250_RLatLon0.03_PT000H.grib2 2026-05-06 06:02 778K
20260506T00Z_MSC_CAPS_GeopotentialHeight_IsbL-0275_RLatLon0.03_PT000H.grib2 2026-05-06 06:02 787K
20260506T00Z_MSC_CAPS_GeopotentialHeight_IsbL-0300_RLatLon0.03_PT000H.grib2 2026-05-06 06:02 793K
20260506T00Z_MSC_CAPS_GeopotentialHeight_IsbL-0350_RLatLon0.03_PT000H.grib2 2026-05-06 06:02 794K
20260506T00Z_MSC_CAPS_GeopotentialHeight_IsbL-0400_RLatLon0.03_PT000H.grib2 2026-05-06 06:02 790K
20260506T00Z_MSC_CAPS_GeopotentialHeight_IsbL-0450_RLatLon0.03_PT000H.grib2 2026-05-06 06:02 783K
20260506T00Z_MSC_CAPS_GeopotentialHeight_IsbL-0500_RLatLon0.03_PT000H.grib2 2026-05-06 06:02 776K
20260506T00Z_MSC_CAPS_GeopotentialHeight_IsbL-0550_RLatLon0.03_PT000H.grib2 2026-05-06 06:02 654K
20260506T00Z_MSC_CAPS_GeopotentialHeight_IsbL-0600_RLatLon0.03_PT000H.grib2 2026-05-06 06:02 648K
20260506T00Z_MSC_CAPS_GeopotentialHeight_IsbL-0650_RLatLon0.03_PT000H.grib2 2026-05-06 06:02 825K
20260506T00Z_MSC_CAPS_GeopotentialHeight_IsbL-0700_RLatLon0.03_PT000H.grib2 2026-05-06 06:02 825K
20260506T00Z_MSC_CAPS_GeopotentialHeight_IsbL-0750_RLatLon0.03_PT000H.grib2 2026-05-06 06:02 825K
20260506T00Z_MSC_CAPS_GeopotentialHeight_IsbL-0800_RLatLon0.03_PT000H.grib2 2026-05-06 06:02 826K
20260506T00Z_MSC_CAPS_GeopotentialHeight_IsbL-0850_RLatLon0.03_PT000H.grib2 2026-05-06 06:02 830K
20260506T00Z_MSC_CAPS_GeopotentialHeight_IsbL-0875_RLatLon0.03_PT000H.grib2 2026-05-06 06:02 830K
20260506T00Z_MSC_CAPS_GeopotentialHeight_IsbL-0900_RLatLon0.03_PT000H.grib2 2026-05-06 06:02 833K
20260506T00Z_MSC_CAPS_GeopotentialHeight_IsbL-0925_RLatLon0.03_PT000H.grib2 2026-05-06 06:02 656K
20260506T00Z_MSC_CAPS_GeopotentialHeight_IsbL-0950_RLatLon0.03_PT000H.grib2 2026-05-06 06:02 660K
20260506T00Z_MSC_CAPS_GeopotentialHeight_IsbL-0970_RLatLon0.03_PT000H.grib2 2026-05-06 06:02 665K
20260506T00Z_MSC_CAPS_GeopotentialHeight_IsbL-0985_RLatLon0.03_PT000H.grib2 2026-05-06 06:02 668K
20260506T00Z_MSC_CAPS_GeopotentialHeight_IsbL-1000_RLatLon0.03_PT000H.grib2 2026-05-06 06:02 672K
20260506T00Z_MSC_CAPS_GeopotentialHeight_IsbL-1015_RLatLon0.03_PT000H.grib2 2026-05-06 06:02 677K
20260506T00Z_MSC_CAPS_GeopotentialHeight_Sfc_RLatLon0.03_PT000H.grib2 2026-05-06 06:02 887K
20260506T00Z_MSC_CAPS_LandWaterProportion_Sfc_RLatLon0.03_PT000H.grib2 2026-05-06 06:02 2.0M
20260506T00Z_MSC_CAPS_LatentHeatNetFlux_Sfc_RLatLon0.03_PT000H.grib2 2026-05-06 06:02 1.7M
20260506T00Z_MSC_CAPS_LiftedIndex-MU-VT_IsbL-0500_RLatLon0.03_PT000H.grib2 2026-05-06 06:02 3.2M
20260506T00Z_MSC_CAPS_NetLongwaveRadiationFlux-Accum_Sfc_RLatLon0.03_PT000H.grib2 2026-05-06 06:02 217
20260506T00Z_MSC_CAPS_NetShortwaveRadiationFlux-Accum_Sfc_RLatLon0.03_PT000H.grib2 2026-05-06 06:02 217
20260506T00Z_MSC_CAPS_PlanetaryBoundaryLayerHeight_Sfc_RLatLon0.03_PT000H.grib2 2026-05-06 06:02 2.6M
20260506T00Z_MSC_CAPS_Pressure_MSL_RLatLon0.03_PT000H.grib2 2026-05-06 06:02 897K
20260506T00Z_MSC_CAPS_Pressure_Sfc_RLatLon0.03_PT000H.grib2 2026-05-06 06:02 911K
20260506T00Z_MSC_CAPS_RadiativeTemp_Sfc_RLatLon0.03_PT000H.grib2 2026-05-06 06:02 2.1M
20260506T00Z_MSC_CAPS_RelativeHumidity_AGL-120m_RLatLon0.03_PT000H.grib2 2026-05-06 06:02 2.2M
20260506T00Z_MSC_CAPS_RelativeHumidity_AGL-2m_RLatLon0.03_PT000H.grib2 2026-05-06 06:02 2.1M
20260506T00Z_MSC_CAPS_RelativeHumidity_AGL-40m_RLatLon0.03_PT000H.grib2 2026-05-06 06:02 2.3M
20260506T00Z_MSC_CAPS_RelativeHumidity_AGL-80m_RLatLon0.03_PT000H.grib2 2026-05-06 06:02 2.2M
20260506T00Z_MSC_CAPS_RelativeHumidity_IsbL-0050_RLatLon0.03_PT000H.grib2 2026-05-06 06:02 938K
20260506T00Z_MSC_CAPS_RelativeHumidity_IsbL-0100_RLatLon0.03_PT000H.grib2 2026-05-06 06:02 811K
20260506T00Z_MSC_CAPS_RelativeHumidity_IsbL-0150_RLatLon0.03_PT000H.grib2 2026-05-06 06:02 553K
20260506T00Z_MSC_CAPS_RelativeHumidity_IsbL-0175_RLatLon0.03_PT000H.grib2 2026-05-06 06:02 434K
20260506T00Z_MSC_CAPS_RelativeHumidity_IsbL-0200_RLatLon0.03_PT000H.grib2 2026-05-06 06:02 583K
20260506T00Z_MSC_CAPS_RelativeHumidity_IsbL-0225_RLatLon0.03_PT000H.grib2 2026-05-06 06:02 782K
20260506T00Z_MSC_CAPS_RelativeHumidity_IsbL-0250_RLatLon0.03_PT000H.grib2 2026-05-06 06:02 971K
20260506T00Z_MSC_CAPS_RelativeHumidity_IsbL-0275_RLatLon0.03_PT000H.grib2 2026-05-06 06:02 1.2M
20260506T00Z_MSC_CAPS_RelativeHumidity_IsbL-0300_RLatLon0.03_PT000H.grib2 2026-05-06 06:02 1.3M
20260506T00Z_MSC_CAPS_RelativeHumidity_IsbL-0350_RLatLon0.03_PT000H.grib2 2026-05-06 06:02 1.5M
20260506T00Z_MSC_CAPS_RelativeHumidity_IsbL-0400_RLatLon0.03_PT000H.grib2 2026-05-06 06:02 1.6M
20260506T00Z_MSC_CAPS_RelativeHumidity_IsbL-0450_RLatLon0.03_PT000H.grib2 2026-05-06 06:02 1.7M
20260506T00Z_MSC_CAPS_RelativeHumidity_IsbL-0500_RLatLon0.03_PT000H.grib2 2026-05-06 06:02 1.6M
20260506T00Z_MSC_CAPS_RelativeHumidity_IsbL-0550_RLatLon0.03_PT000H.grib2 2026-05-06 06:02 1.7M
20260506T00Z_MSC_CAPS_RelativeHumidity_IsbL-0600_RLatLon0.03_PT000H.grib2 2026-05-06 06:02 1.6M
20260506T00Z_MSC_CAPS_RelativeHumidity_IsbL-0650_RLatLon0.03_PT000H.grib2 2026-05-06 06:02 1.9M
20260506T00Z_MSC_CAPS_RelativeHumidity_IsbL-0700_RLatLon0.03_PT000H.grib2 2026-05-06 06:02 1.9M
20260506T00Z_MSC_CAPS_RelativeHumidity_IsbL-0750_RLatLon0.03_PT000H.grib2 2026-05-06 06:02 1.9M
20260506T00Z_MSC_CAPS_RelativeHumidity_IsbL-0800_RLatLon0.03_PT000H.grib2 2026-05-06 06:02 2.1M
20260506T00Z_MSC_CAPS_RelativeHumidity_IsbL-0850_RLatLon0.03_PT000H.grib2 2026-05-06 06:02 2.1M
20260506T00Z_MSC_CAPS_RelativeHumidity_IsbL-0875_RLatLon0.03_PT000H.grib2 2026-05-06 06:02 2.1M
20260506T00Z_MSC_CAPS_RelativeHumidity_IsbL-0900_RLatLon0.03_PT000H.grib2 2026-05-06 06:02 2.1M
20260506T00Z_MSC_CAPS_RelativeHumidity_IsbL-0925_RLatLon0.03_PT000H.grib2 2026-05-06 06:02 2.1M
20260506T00Z_MSC_CAPS_RelativeHumidity_IsbL-0950_RLatLon0.03_PT000H.grib2 2026-05-06 06:02 2.1M
20260506T00Z_MSC_CAPS_RelativeHumidity_IsbL-0970_RLatLon0.03_PT000H.grib2 2026-05-06 06:02 2.1M
20260506T00Z_MSC_CAPS_RelativeHumidity_IsbL-0985_RLatLon0.03_PT000H.grib2 2026-05-06 06:02 2.1M
20260506T00Z_MSC_CAPS_RelativeHumidity_IsbL-1000_RLatLon0.03_PT000H.grib2 2026-05-06 06:02 2.1M
20260506T00Z_MSC_CAPS_RelativeHumidity_IsbL-1015_RLatLon0.03_PT000H.grib2 2026-05-06 06:02 2.0M
20260506T00Z_MSC_CAPS_Runoff-Accum_Sfc_RLatLon0.03_PT000H.grib2 2026-05-06 06:02 193
20260506T00Z_MSC_CAPS_SeaIceFraction_Sfc_RLatLon0.03_PT000H.grib2 2026-05-06 06:02 2.3M
20260506T00Z_MSC_CAPS_SeaWaterTemp_Sfc_RLatLon0.03_PT000H.grib2 2026-05-06 06:02 2.0M
20260506T00Z_MSC_CAPS_SensibleHeatNetFlux_Sfc_RLatLon0.03_PT000H.grib2 2026-05-06 06:02 1.8M
20260506T00Z_MSC_CAPS_ShowalterIndex_IsbL-0500_RLatLon0.03_PT000H.grib2 2026-05-06 06:02 3.7M
20260506T00Z_MSC_CAPS_SnowDensity_Sfc_RLatLon0.03_PT000H.grib2 2026-05-06 06:02 1.0M
20260506T00Z_MSC_CAPS_SnowDepthWaterEquivalent_Sfc_RLatLon0.03_PT000H.grib2 2026-05-06 06:02 641K
20260506T00Z_MSC_CAPS_SnowDepth_Sfc_RLatLon0.03_PT000H.grib2 2026-05-06 06:02 1.1M
20260506T00Z_MSC_CAPS_SoilTemp_DBS-0to10cm_RLatLon0.03_PT000H.grib2 2026-05-06 06:02 1.0M
20260506T00Z_MSC_CAPS_SoilTemp_Sfc_RLatLon0.03_PT000H.grib2 2026-05-06 06:02 1.3M
20260506T00Z_MSC_CAPS_SoilVolumetricIceContent_Sfc_RLatLon0.03_PT000H.grib2 2026-05-06 06:02 1.2M
20260506T00Z_MSC_CAPS_SoilVolumetricWaterContent_DBS-0to10cm_RLatLon0.03_PT000H.grib2 2026-05-06 06:02 1.2M
20260506T00Z_MSC_CAPS_SoilVolumetricWaterContent_DBS-0to1cm_RLatLon0.03_PT000H.grib2 2026-05-06 06:02 1.6M
20260506T00Z_MSC_CAPS_SpecificHumidity_AGL-120m_RLatLon0.03_PT000H.grib2 2026-05-06 06:02 1.3M
20260506T00Z_MSC_CAPS_SpecificHumidity_AGL-2m_RLatLon0.03_PT000H.grib2 2026-05-06 06:02 1.2M
20260506T00Z_MSC_CAPS_SpecificHumidity_AGL-40m_RLatLon0.03_PT000H.grib2 2026-05-06 06:02 1.4M
20260506T00Z_MSC_CAPS_SpecificHumidity_AGL-80m_RLatLon0.03_PT000H.grib2 2026-05-06 06:02 1.3M
20260506T00Z_MSC_CAPS_SpecificHumidity_IsbL-0050_RLatLon0.03_PT000H.grib2 2026-05-06 06:02 843K
20260506T00Z_MSC_CAPS_SpecificHumidity_IsbL-0100_RLatLon0.03_PT000H.grib2 2026-05-06 06:02 1.1M
20260506T00Z_MSC_CAPS_SpecificHumidity_IsbL-0150_RLatLon0.03_PT000H.grib2 2026-05-06 06:02 716K
20260506T00Z_MSC_CAPS_SpecificHumidity_IsbL-0175_RLatLon0.03_PT000H.grib2 2026-05-06 06:02 918K
20260506T00Z_MSC_CAPS_SpecificHumidity_IsbL-0200_RLatLon0.03_PT000H.grib2 2026-05-06 06:02 774K
20260506T00Z_MSC_CAPS_SpecificHumidity_IsbL-0225_RLatLon0.03_PT000H.grib2 2026-05-06 06:02 946K
20260506T00Z_MSC_CAPS_SpecificHumidity_IsbL-0250_RLatLon0.03_PT000H.grib2 2026-05-06 06:02 941K
20260506T00Z_MSC_CAPS_SpecificHumidity_IsbL-0275_RLatLon0.03_PT000H.grib2 2026-05-06 06:02 944K
20260506T00Z_MSC_CAPS_SpecificHumidity_IsbL-0300_RLatLon0.03_PT000H.grib2 2026-05-06 06:02 809K
20260506T00Z_MSC_CAPS_SpecificHumidity_IsbL-0350_RLatLon0.03_PT000H.grib2 2026-05-06 06:02 942K
20260506T00Z_MSC_CAPS_SpecificHumidity_IsbL-0400_RLatLon0.03_PT000H.grib2 2026-05-06 06:02 948K
20260506T00Z_MSC_CAPS_SpecificHumidity_IsbL-0450_RLatLon0.03_PT000H.grib2 2026-05-06 06:02 911K
20260506T00Z_MSC_CAPS_SpecificHumidity_IsbL-0500_RLatLon0.03_PT000H.grib2 2026-05-06 06:02 1.0M
20260506T00Z_MSC_CAPS_SpecificHumidity_IsbL-0550_RLatLon0.03_PT000H.grib2 2026-05-06 06:02 932K
20260506T00Z_MSC_CAPS_SpecificHumidity_IsbL-0600_RLatLon0.03_PT000H.grib2 2026-05-06 06:02 1.0M
20260506T00Z_MSC_CAPS_SpecificHumidity_IsbL-0650_RLatLon0.03_PT000H.grib2 2026-05-06 06:02 1.1M
20260506T00Z_MSC_CAPS_SpecificHumidity_IsbL-0700_RLatLon0.03_PT000H.grib2 2026-05-06 06:02 950K
20260506T00Z_MSC_CAPS_SpecificHumidity_IsbL-0750_RLatLon0.03_PT000H.grib2 2026-05-06 06:02 1.0M
20260506T00Z_MSC_CAPS_SpecificHumidity_IsbL-0800_RLatLon0.03_PT000H.grib2 2026-05-06 06:02 1.2M
20260506T00Z_MSC_CAPS_SpecificHumidity_IsbL-0850_RLatLon0.03_PT000H.grib2 2026-05-06 06:02 1.2M
20260506T00Z_MSC_CAPS_SpecificHumidity_IsbL-0875_RLatLon0.03_PT000H.grib2 2026-05-06 06:02 1.3M
20260506T00Z_MSC_CAPS_SpecificHumidity_IsbL-0900_RLatLon0.03_PT000H.grib2 2026-05-06 06:02 1.3M
20260506T00Z_MSC_CAPS_SpecificHumidity_IsbL-0925_RLatLon0.03_PT000H.grib2 2026-05-06 06:02 1.0M
20260506T00Z_MSC_CAPS_SpecificHumidity_IsbL-0950_RLatLon0.03_PT000H.grib2 2026-05-06 06:02 1.0M
20260506T00Z_MSC_CAPS_SpecificHumidity_IsbL-0970_RLatLon0.03_PT000H.grib2 2026-05-06 06:02 1.3M
20260506T00Z_MSC_CAPS_SpecificHumidity_IsbL-0985_RLatLon0.03_PT000H.grib2 2026-05-06 06:02 1.0M
20260506T00Z_MSC_CAPS_SpecificHumidity_IsbL-1000_RLatLon0.03_PT000H.grib2 2026-05-06 06:02 1.3M
20260506T00Z_MSC_CAPS_SpecificHumidity_IsbL-1015_RLatLon0.03_PT000H.grib2 2026-05-06 06:02 1.3M
20260506T00Z_MSC_CAPS_SpecificHumidity_Sfc_RLatLon0.03_PT000H.grib2 2026-05-06 06:02 2.0M
20260506T00Z_MSC_CAPS_StormRelativeHelicity_Sfc_RLatLon0.03_PT000H.grib2 2026-05-06 06:02 2.6M
20260506T00Z_MSC_CAPS_Thickness_IsbL-1000to0500_RLatLon0.03_PT000H.grib2 2026-05-06 06:02 469K
20260506T00Z_MSC_CAPS_TotalCloudCover_Sfc_RLatLon0.03_PT000H.grib2 2026-05-06 06:02 2.4M
20260506T00Z_MSC_CAPS_UpwardLongwaveRadiationFlux_NTAtm_RLatLon0.03_PT000H.grib2 2026-05-06 06:02 2.5M
20260506T00Z_MSC_CAPS_UpwardShortwaveRadiationFlux_NTAtm_RLatLon0.03_PT000H.grib2 2026-05-06 06:02 1.4M
20260506T00Z_MSC_CAPS_VerticalVelocity_IsbL-0250_RLatLon0.03_PT000H.grib2 2026-05-06 06:02 936K
20260506T00Z_MSC_CAPS_VerticalVelocity_IsbL-0500_RLatLon0.03_PT000H.grib2 2026-05-06 06:02 1.0M
20260506T00Z_MSC_CAPS_VerticalVelocity_IsbL-0700_RLatLon0.03_PT000H.grib2 2026-05-06 06:02 938K
20260506T00Z_MSC_CAPS_VerticalVelocity_IsbL-0850_RLatLon0.03_PT000H.grib2 2026-05-06 06:02 1.0M
20260506T00Z_MSC_CAPS_VerticalVelocity_IsbL-1000_RLatLon0.03_PT000H.grib2 2026-05-06 06:02 1.0M
20260506T00Z_MSC_CAPS_WindDir_AGL-10m_RLatLon0.03_PT000H.grib2 2026-05-06 06:02 1.7M
20260506T00Z_MSC_CAPS_WindDir_AGL-120m_RLatLon0.03_PT000H.grib2 2026-05-06 06:02 1.0M
20260506T00Z_MSC_CAPS_WindDir_AGL-40m_RLatLon0.03_PT000H.grib2 2026-05-06 06:02 1.1M
20260506T00Z_MSC_CAPS_WindDir_AGL-80m_RLatLon0.03_PT000H.grib2 2026-05-06 06:02 1.0M
20260506T00Z_MSC_CAPS_WindDir_IsbL-0050_RLatLon0.03_PT000H.grib2 2026-05-06 06:02 1.0M
20260506T00Z_MSC_CAPS_WindDir_IsbL-0100_RLatLon0.03_PT000H.grib2 2026-05-06 06:02 1.0M
20260506T00Z_MSC_CAPS_WindDir_IsbL-0150_RLatLon0.03_PT000H.grib2 2026-05-06 06:02 1.0M
20260506T00Z_MSC_CAPS_WindDir_IsbL-0175_RLatLon0.03_PT000H.grib2 2026-05-06 06:02 1.0M
20260506T00Z_MSC_CAPS_WindDir_IsbL-0200_RLatLon0.03_PT000H.grib2 2026-05-06 06:02 1.0M
20260506T00Z_MSC_CAPS_WindDir_IsbL-0225_RLatLon0.03_PT000H.grib2 2026-05-06 06:02 1.1M
20260506T00Z_MSC_CAPS_WindDir_IsbL-0250_RLatLon0.03_PT000H.grib2 2026-05-06 06:02 1.0M
20260506T00Z_MSC_CAPS_WindDir_IsbL-0275_RLatLon0.03_PT000H.grib2 2026-05-06 06:02 1.0M
20260506T00Z_MSC_CAPS_WindDir_IsbL-0300_RLatLon0.03_PT000H.grib2 2026-05-06 06:02 1.0M
20260506T00Z_MSC_CAPS_WindDir_IsbL-0350_RLatLon0.03_PT000H.grib2 2026-05-06 06:02 1.1M
20260506T00Z_MSC_CAPS_WindDir_IsbL-0400_RLatLon0.03_PT000H.grib2 2026-05-06 06:02 1.1M
20260506T00Z_MSC_CAPS_WindDir_IsbL-0450_RLatLon0.03_PT000H.grib2 2026-05-06 06:02 1.1M
20260506T00Z_MSC_CAPS_WindDir_IsbL-0500_RLatLon0.03_PT000H.grib2 2026-05-06 06:02 1.2M
20260506T00Z_MSC_CAPS_WindDir_IsbL-0550_RLatLon0.03_PT000H.grib2 2026-05-06 06:02 1.2M
20260506T00Z_MSC_CAPS_WindDir_IsbL-0600_RLatLon0.03_PT000H.grib2 2026-05-06 06:02 1.1M
20260506T00Z_MSC_CAPS_WindDir_IsbL-0650_RLatLon0.03_PT000H.grib2 2026-05-06 06:02 1.2M
20260506T00Z_MSC_CAPS_WindDir_IsbL-0700_RLatLon0.03_PT000H.grib2 2026-05-06 06:02 1.3M
20260506T00Z_MSC_CAPS_WindDir_IsbL-0750_RLatLon0.03_PT000H.grib2 2026-05-06 06:02 1.3M
20260506T00Z_MSC_CAPS_WindDir_IsbL-0800_RLatLon0.03_PT000H.grib2 2026-05-06 06:02 1.4M
20260506T00Z_MSC_CAPS_WindDir_IsbL-0850_RLatLon0.03_PT000H.grib2 2026-05-06 06:02 1.5M
20260506T00Z_MSC_CAPS_WindDir_IsbL-0875_RLatLon0.03_PT000H.grib2 2026-05-06 06:02 1.5M
20260506T00Z_MSC_CAPS_WindDir_IsbL-0900_RLatLon0.03_PT000H.grib2 2026-05-06 06:02 1.5M
20260506T00Z_MSC_CAPS_WindDir_IsbL-0925_RLatLon0.03_PT000H.grib2 2026-05-06 06:02 1.6M
20260506T00Z_MSC_CAPS_WindDir_IsbL-0950_RLatLon0.03_PT000H.grib2 2026-05-06 06:02 1.7M
20260506T00Z_MSC_CAPS_WindDir_IsbL-0970_RLatLon0.03_PT000H.grib2 2026-05-06 06:02 1.7M
20260506T00Z_MSC_CAPS_WindDir_IsbL-0985_RLatLon0.03_PT000H.grib2 2026-05-06 06:02 1.7M
20260506T00Z_MSC_CAPS_WindDir_IsbL-1000_RLatLon0.03_PT000H.grib2 2026-05-06 06:02 1.7M
20260506T00Z_MSC_CAPS_WindDir_IsbL-1015_RLatLon0.03_PT000H.grib2 2026-05-06 06:02 1.7M
20260506T00Z_MSC_CAPS_WindGust-Max_AGL-10m_RLatLon0.03_PT000H.grib2 2026-05-06 06:02 1.4M
20260506T00Z_MSC_CAPS_WindGust-Min_AGL-10m_RLatLon0.03_PT000H.grib2 2026-05-06 06:02 1.8M
20260506T00Z_MSC_CAPS_WindGust_AGL-10m_RLatLon0.03_PT000H.grib2 2026-05-06 06:02 2.0M
20260506T00Z_MSC_CAPS_WindSpeed_AGL-10m_RLatLon0.03_PT000H.grib2 2026-05-06 06:02 1.3M
20260506T00Z_MSC_CAPS_WindSpeed_AGL-120m_RLatLon0.03_PT000H.grib2 2026-05-06 06:02 1.0M
20260506T00Z_MSC_CAPS_WindSpeed_AGL-40m_RLatLon0.03_PT000H.grib2 2026-05-06 06:02 1.0M
20260506T00Z_MSC_CAPS_WindSpeed_AGL-80m_RLatLon0.03_PT000H.grib2 2026-05-06 06:02 1.0M
20260506T00Z_MSC_CAPS_WindSpeed_IsbL-0050_RLatLon0.03_PT000H.grib2 2026-05-06 06:02 944K
20260506T00Z_MSC_CAPS_WindSpeed_IsbL-0100_RLatLon0.03_PT000H.grib2 2026-05-06 06:02 1.2M
20260506T00Z_MSC_CAPS_WindSpeed_IsbL-0150_RLatLon0.03_PT000H.grib2 2026-05-06 06:02 1.0M
20260506T00Z_MSC_CAPS_WindSpeed_IsbL-0175_RLatLon0.03_PT000H.grib2 2026-05-06 06:02 1.1M
20260506T00Z_MSC_CAPS_WindSpeed_IsbL-0200_RLatLon0.03_PT000H.grib2 2026-05-06 06:02 1.1M
20260506T00Z_MSC_CAPS_WindSpeed_IsbL-0225_RLatLon0.03_PT000H.grib2 2026-05-06 06:02 902K
20260506T00Z_MSC_CAPS_WindSpeed_IsbL-0250_RLatLon0.03_PT000H.grib2 2026-05-06 06:02 915K
20260506T00Z_MSC_CAPS_WindSpeed_IsbL-0275_RLatLon0.03_PT000H.grib2 2026-05-06 06:02 920K
20260506T00Z_MSC_CAPS_WindSpeed_IsbL-0300_RLatLon0.03_PT000H.grib2 2026-05-06 06:02 933K
20260506T00Z_MSC_CAPS_WindSpeed_IsbL-0350_RLatLon0.03_PT000H.grib2 2026-05-06 06:02 951K
20260506T00Z_MSC_CAPS_WindSpeed_IsbL-0400_RLatLon0.03_PT000H.grib2 2026-05-06 06:02 956K
20260506T00Z_MSC_CAPS_WindSpeed_IsbL-0450_RLatLon0.03_PT000H.grib2 2026-05-06 06:02 954K
20260506T00Z_MSC_CAPS_WindSpeed_IsbL-0500_RLatLon0.03_PT000H.grib2 2026-05-06 06:02 956K
20260506T00Z_MSC_CAPS_WindSpeed_IsbL-0550_RLatLon0.03_PT000H.grib2 2026-05-06 06:02 1.3M
20260506T00Z_MSC_CAPS_WindSpeed_IsbL-0600_RLatLon0.03_PT000H.grib2 2026-05-06 06:02 1.2M
20260506T00Z_MSC_CAPS_WindSpeed_IsbL-0650_RLatLon0.03_PT000H.grib2 2026-05-06 06:02 1.2M
20260506T00Z_MSC_CAPS_WindSpeed_IsbL-0700_RLatLon0.03_PT000H.grib2 2026-05-06 06:02 1.3M
20260506T00Z_MSC_CAPS_WindSpeed_IsbL-0750_RLatLon0.03_PT000H.grib2 2026-05-06 06:02 1.3M
20260506T00Z_MSC_CAPS_WindSpeed_IsbL-0800_RLatLon0.03_PT000H.grib2 2026-05-06 06:02 1.3M
20260506T00Z_MSC_CAPS_WindSpeed_IsbL-0850_RLatLon0.03_PT000H.grib2 2026-05-06 06:02 1.4M
20260506T00Z_MSC_CAPS_WindSpeed_IsbL-0875_RLatLon0.03_PT000H.grib2 2026-05-06 06:02 1.5M
20260506T00Z_MSC_CAPS_WindSpeed_IsbL-0900_RLatLon0.03_PT000H.grib2 2026-05-06 06:02 1.5M
20260506T00Z_MSC_CAPS_WindSpeed_IsbL-0925_RLatLon0.03_PT000H.grib2 2026-05-06 06:02 1.6M
20260506T00Z_MSC_CAPS_WindSpeed_IsbL-0950_RLatLon0.03_PT000H.grib2 2026-05-06 06:02 1.6M
20260506T00Z_MSC_CAPS_WindSpeed_IsbL-0970_RLatLon0.03_PT000H.grib2 2026-05-06 06:02 1.6M
20260506T00Z_MSC_CAPS_WindSpeed_IsbL-0985_RLatLon0.03_PT000H.grib2 2026-05-06 06:02 1.5M
20260506T00Z_MSC_CAPS_WindSpeed_IsbL-1000_RLatLon0.03_PT000H.grib2 2026-05-06 06:02 1.5M
20260506T00Z_MSC_CAPS_WindSpeed_IsbL-1015_RLatLon0.03_PT000H.grib2 2026-05-06 06:02 1.3M
20260506T00Z_MSC_CAPS_WindU_AGL-10m_RLatLon0.03_PT000H.grib2 2026-05-06 06:02 1.2M
20260506T00Z_MSC_CAPS_WindU_AGL-120m_RLatLon0.03_PT000H.grib2 2026-05-06 06:02 1.0M
20260506T00Z_MSC_CAPS_WindU_AGL-40m_RLatLon0.03_PT000H.grib2 2026-05-06 06:02 1.0M
20260506T00Z_MSC_CAPS_WindU_AGL-80m_RLatLon0.03_PT000H.grib2 2026-05-06 06:02 1.0M
20260506T00Z_MSC_CAPS_WindU_IsbL-0050_RLatLon0.03_PT000H.grib2 2026-05-06 06:02 704K
20260506T00Z_MSC_CAPS_WindU_IsbL-0100_RLatLon0.03_PT000H.grib2 2026-05-06 06:02 915K
20260506T00Z_MSC_CAPS_WindU_IsbL-0150_RLatLon0.03_PT000H.grib2 2026-05-06 06:02 862K
20260506T00Z_MSC_CAPS_WindU_IsbL-0175_RLatLon0.03_PT000H.grib2 2026-05-06 06:02 681K
20260506T00Z_MSC_CAPS_WindU_IsbL-0200_RLatLon0.03_PT000H.grib2 2026-05-06 06:02 698K
20260506T00Z_MSC_CAPS_WindU_IsbL-0225_RLatLon0.03_PT000H.grib2 2026-05-06 06:02 847K
20260506T00Z_MSC_CAPS_WindU_IsbL-0250_RLatLon0.03_PT000H.grib2 2026-05-06 06:02 863K
20260506T00Z_MSC_CAPS_WindU_IsbL-0275_RLatLon0.03_PT000H.grib2 2026-05-06 06:02 680K
20260506T00Z_MSC_CAPS_WindU_IsbL-0300_RLatLon0.03_PT000H.grib2 2026-05-06 06:02 881K
20260506T00Z_MSC_CAPS_WindU_IsbL-0350_RLatLon0.03_PT000H.grib2 2026-05-06 06:02 898K
20260506T00Z_MSC_CAPS_WindU_IsbL-0400_RLatLon0.03_PT000H.grib2 2026-05-06 06:02 902K
20260506T00Z_MSC_CAPS_WindU_IsbL-0450_RLatLon0.03_PT000H.grib2 2026-05-06 06:02 902K
20260506T00Z_MSC_CAPS_WindU_IsbL-0500_RLatLon0.03_PT000H.grib2 2026-05-06 06:02 904K
20260506T00Z_MSC_CAPS_WindU_IsbL-0550_RLatLon0.03_PT000H.grib2 2026-05-06 06:02 908K
20260506T00Z_MSC_CAPS_WindU_IsbL-0600_RLatLon0.03_PT000H.grib2 2026-05-06 06:02 786K
20260506T00Z_MSC_CAPS_WindU_IsbL-0650_RLatLon0.03_PT000H.grib2 2026-05-06 06:02 800K
20260506T00Z_MSC_CAPS_WindU_IsbL-0700_RLatLon0.03_PT000H.grib2 2026-05-06 06:02 830K
20260506T00Z_MSC_CAPS_WindU_IsbL-0750_RLatLon0.03_PT000H.grib2 2026-05-06 06:02 874K
20260506T00Z_MSC_CAPS_WindU_IsbL-0800_RLatLon0.03_PT000H.grib2 2026-05-06 06:02 918K
20260506T00Z_MSC_CAPS_WindU_IsbL-0850_RLatLon0.03_PT000H.grib2 2026-05-06 06:02 970K
20260506T00Z_MSC_CAPS_WindU_IsbL-0875_RLatLon0.03_PT000H.grib2 2026-05-06 06:02 1.0M
20260506T00Z_MSC_CAPS_WindU_IsbL-0900_RLatLon0.03_PT000H.grib2 2026-05-06 06:02 1.0M
20260506T00Z_MSC_CAPS_WindU_IsbL-0925_RLatLon0.03_PT000H.grib2 2026-05-06 06:02 1.0M
20260506T00Z_MSC_CAPS_WindU_IsbL-0950_RLatLon0.03_PT000H.grib2 2026-05-06 06:02 1.0M
20260506T00Z_MSC_CAPS_WindU_IsbL-0970_RLatLon0.03_PT000H.grib2 2026-05-06 06:02 1.0M
20260506T00Z_MSC_CAPS_WindU_IsbL-0985_RLatLon0.03_PT000H.grib2 2026-05-06 06:02 1.2M
20260506T00Z_MSC_CAPS_WindU_IsbL-1000_RLatLon0.03_PT000H.grib2 2026-05-06 06:02 1.2M
20260506T00Z_MSC_CAPS_WindU_IsbL-1015_RLatLon0.03_PT000H.grib2 2026-05-06 06:02 1.2M
20260506T00Z_MSC_CAPS_WindV_AGL-10m_RLatLon0.03_PT000H.grib2 2026-05-06 06:02 1.1M
20260506T00Z_MSC_CAPS_WindV_AGL-120m_RLatLon0.03_PT000H.grib2 2026-05-06 06:02 748K
20260506T00Z_MSC_CAPS_WindV_AGL-40m_RLatLon0.03_PT000H.grib2 2026-05-06 06:02 1.0M
20260506T00Z_MSC_CAPS_WindV_AGL-80m_RLatLon0.03_PT000H.grib2 2026-05-06 06:02 757K
20260506T00Z_MSC_CAPS_WindV_IsbL-0050_RLatLon0.03_PT000H.grib2 2026-05-06 06:02 746K
20260506T00Z_MSC_CAPS_WindV_IsbL-0100_RLatLon0.03_PT000H.grib2 2026-05-06 06:02 741K
20260506T00Z_MSC_CAPS_WindV_IsbL-0150_RLatLon0.03_PT000H.grib2 2026-05-06 06:02 857K
20260506T00Z_MSC_CAPS_WindV_IsbL-0175_RLatLon0.03_PT000H.grib2 2026-05-06 06:02 674K
20260506T00Z_MSC_CAPS_WindV_IsbL-0200_RLatLon0.03_PT000H.grib2 2026-05-06 06:02 823K
20260506T00Z_MSC_CAPS_WindV_IsbL-0225_RLatLon0.03_PT000H.grib2 2026-05-06 06:02 839K
20260506T00Z_MSC_CAPS_WindV_IsbL-0250_RLatLon0.03_PT000H.grib2 2026-05-06 06:02 662K
20260506T00Z_MSC_CAPS_WindV_IsbL-0275_RLatLon0.03_PT000H.grib2 2026-05-06 06:02 674K
20260506T00Z_MSC_CAPS_WindV_IsbL-0300_RLatLon0.03_PT000H.grib2 2026-05-06 06:02 682K
20260506T00Z_MSC_CAPS_WindV_IsbL-0350_RLatLon0.03_PT000H.grib2 2026-05-06 06:02 696K
20260506T00Z_MSC_CAPS_WindV_IsbL-0400_RLatLon0.03_PT000H.grib2 2026-05-06 06:02 899K
20260506T00Z_MSC_CAPS_WindV_IsbL-0450_RLatLon0.03_PT000H.grib2 2026-05-06 06:02 898K
20260506T00Z_MSC_CAPS_WindV_IsbL-0500_RLatLon0.03_PT000H.grib2 2026-05-06 06:02 900K
20260506T00Z_MSC_CAPS_WindV_IsbL-0550_RLatLon0.03_PT000H.grib2 2026-05-06 06:02 905K
20260506T00Z_MSC_CAPS_WindV_IsbL-0600_RLatLon0.03_PT000H.grib2 2026-05-06 06:02 779K
20260506T00Z_MSC_CAPS_WindV_IsbL-0650_RLatLon0.03_PT000H.grib2 2026-05-06 06:02 1.0M
20260506T00Z_MSC_CAPS_WindV_IsbL-0700_RLatLon0.03_PT000H.grib2 2026-05-06 06:02 1.0M
20260506T00Z_MSC_CAPS_WindV_IsbL-0750_RLatLon0.03_PT000H.grib2 2026-05-06 06:02 1.1M
20260506T00Z_MSC_CAPS_WindV_IsbL-0800_RLatLon0.03_PT000H.grib2 2026-05-06 06:02 1.1M
20260506T00Z_MSC_CAPS_WindV_IsbL-0850_RLatLon0.03_PT000H.grib2 2026-05-06 06:02 954K
20260506T00Z_MSC_CAPS_WindV_IsbL-0875_RLatLon0.03_PT000H.grib2 2026-05-06 06:02 971K
20260506T00Z_MSC_CAPS_WindV_IsbL-0900_RLatLon0.03_PT000H.grib2 2026-05-06 06:02 1.0M
20260506T00Z_MSC_CAPS_WindV_IsbL-0925_RLatLon0.03_PT000H.grib2 2026-05-06 06:02 1.1M
20260506T00Z_MSC_CAPS_WindV_IsbL-0950_RLatLon0.03_PT000H.grib2 2026-05-06 06:02 1.1M
20260506T00Z_MSC_CAPS_WindV_IsbL-0970_RLatLon0.03_PT000H.grib2 2026-05-06 06:02 1.1M
20260506T00Z_MSC_CAPS_WindV_IsbL-0985_RLatLon0.03_PT000H.grib2 2026-05-06 06:02 1.0M
20260506T00Z_MSC_CAPS_WindV_IsbL-1000_RLatLon0.03_PT000H.grib2 2026-05-06 06:02 942K
20260506T00Z_MSC_CAPS_WindV_IsbL-1015_RLatLon0.03_PT000H.grib2 2026-05-06 06:02 1.1M